owner,sensor,date,latitude,longitude,sea_water_turbidity,qcFlag 
FWRI,ioos:station:FWRI:NPD:2,2013-07-01T04:59:00Z,27.3338,-82.5794,0.8,1111122 
FWRI,ioos:station:FWRI:NPD:2,2013-07-01T05:59:00Z,27.3338,-82.5794,0.6,1111122 
FWRI,ioos:station:FWRI:NPD:2,2013-07-01T06:59:00Z,27.3338,-82.5794,3.0,1111122 
FWRI,ioos:station:FWRI:NPD:2,2013-07-01T07:59:00Z,27.3338,-82.5794,3.1,1111122 
FWRI,ioos:station:FWRI:NPD:2,2013-07-01T08:59:00Z,27.3338,-82.5794,3.6,1111122 
FWRI,ioos:station:FWRI:NPD:2,2013-07-01T09:59:00Z,27.3338,-82.5794,3.8,1111122 
FWRI,ioos:station:FWRI:NPD:2,2013-07-01T10:59:00Z,27.3338,-82.5794,3.1,1111122 
FWRI,ioos:station:FWRI:NPD:2,2013-07-01T11:59:00Z,27.3338,-82.5794,1.8,1111122 
FWRI,ioos:station:FWRI:NPD:2,2013-07-01T12:59:00Z,27.3338,-82.5794,1.4,1111122 
FWRI,ioos:station:FWRI:NPD:2,2013-07-01T13:59:00Z,27.3338,-82.5794,1.2,1111122 
FWRI,ioos:station:FWRI:NPD:2,2013-07-01T14:59:00Z,27.3338,-82.5794,0.7,1111122 
FWRI,ioos:station:FWRI:NPD:2,2013-07-01T15:59:00Z,27.3338,-82.5794,0.5,1111122 
FWRI,ioos:station:FWRI:NPD:2,2013-07-01T16:59:00Z,27.3338,-82.5794,0.5,1111122 
FWRI,ioos:station:FWRI:NPD:2,2013-07-01T17:59:00Z,27.3338,-82.5794,0.4,1111122 
FWRI,ioos:station:FWRI:NPD:2,2013-07-01T18:59:00Z,27.3338,-82.5794,0.2,1111122 
FWRI,ioos:station:FWRI:NPD:2,2013-07-01T19:59:00Z,27.3338,-82.5794,0.6,1111122 
FWRI,ioos:station:FWRI:NPD:2,2013-07-01T20:59:00Z,27.3338,-82.5794,0.2,1111122 
FWRI,ioos:station:FWRI:NPD:2,2013-07-01T21:59:00Z,27.3338,-82.5794,0.1,1111122 
FWRI,ioos:station:FWRI:NPD:2,2013-07-01T22:59:00Z,27.3338,-82.5794,0.1,1111122 
FWRI,ioos:station:FWRI:NPD:2,2013-07-01T23:59:00Z,27.3338,-82.5794,0.1,1111122 
FWRI,ioos:station:FWRI:NPD:2,2013-07-03T19:59:00Z,27.3338,-82.5794,3.6,1111122 
FWRI,ioos:station:FWRI:NPD:2,2013-07-03T20:59:00Z,27.3338,-82.5794,1.8,1111122 
FWRI,ioos:station:FWRI:NPD:2,2013-07-03T21:59:00Z,27.3338,-82.5794,1.7,1111122 
FWRI,ioos:station:FWRI:NPD:2,2013-07-03T22:59:00Z,27.3338,-82.5794,1.5,1111122 
FWRI,ioos:station:FWRI:NPD:2,2013-07-03T23:59:00Z,27.3338,-82.5794,1.4,1111122 
FWRI,ioos:station:FWRI:NPD:2,2013-07-04T00:59:00Z,27.3338,-82.5794,1.3,1111122 
FWRI,ioos:station:FWRI:NPD:2,2013-07-04T01:59:00Z,27.3338,-82.5794,1.2,1111122 
FWRI,ioos:station:FWRI:NPD:2,2013-07-04T02:59:00Z,27.3338,-82.5794,1.6,1111122 
FWRI,ioos:station:FWRI:NPD:2,2013-07-04T03:59:00Z,27.3338,-82.5794,1.9,1111122 
FWRI,ioos:station:FWRI:NPD:2,2013-07-04T04:59:00Z,27.3338,-82.5794,1.7,1111122 
FWRI,ioos:station:FWRI:NPD:2,2013-07-04T05:59:00Z,27.3338,-82.5794,1.4,1111122 
FWRI,ioos:station:FWRI:NPD:2,2013-07-04T06:59:00Z,27.3338,-82.5794,1.4,1111122 
FWRI,ioos:station:FWRI:NPD:2,2013-07-04T07:59:00Z,27.3338,-82.5794,1.4,1111122 
FWRI,ioos:station:FWRI:NPD:2,2013-07-04T08:59:00Z,27.3338,-82.5794,1.3,1111122 
FWRI,ioos:station:FWRI:NPD:2,2013-07-04T09:59:00Z,27.3338,-82.5794,1.4,1111122 
FWRI,ioos:station:FWRI:NPD:2,2013-07-04T10:59:00Z,27.3338,-82.5794,2.2,1111122 
FWRI,ioos:station:FWRI:NPD:2,2013-07-04T11:59:00Z,27.3338,-82.5794,2.2,1111122 
FWRI,ioos:station:FWRI:NPD:2,2013-07-04T12:59:00Z,27.3338,-82.5794,3.1,1111122 
FWRI,ioos:station:FWRI:NPD:2,2013-07-04T13:59:00Z,27.3338,-82.5794,2.0,1111122 
FWRI,ioos:station:FWRI:NPD:2,2013-07-04T14:59:00Z,27.3338,-82.5794,1.4,1111122 
FWRI,ioos:station:FWRI:NPD:2,2013-07-04T15:59:00Z,27.3338,-82.5794,1.5,1111122 
FWRI,ioos:station:FWRI:NPD:2,2013-07-04T16:59:00Z,27.3338,-82.5794,1.4,1111122 
FWRI,ioos:station:FWRI:NPD:2,2013-07-04T17:59:00Z,27.3338,-82.5794,1.4,1111122 
FWRI,ioos:station:FWRI:NPD:2,2013-07-04T18:59:00Z,27.3338,-82.5794,1.4,1111122 
FWRI,ioos:station:FWRI:NPD:2,2013-07-04T19:59:00Z,27.3338,-82.5794,1.9,1111122 
FWRI,ioos:station:FWRI:NPD:2,2013-07-04T20:59:00Z,27.3338,-82.5794,2.0,1111122 
FWRI,ioos:station:FWRI:NPD:2,2013-07-04T21:59:00Z,27.3338,-82.5794,1.8,1111122 
FWRI,ioos:station:FWRI:NPD:2,2013-07-04T22:59:00Z,27.3338,-82.5794,1.8,1111122 
FWRI,ioos:station:FWRI:NPD:2,2013-07-04T23:59:00Z,27.3338,-82.5794,1.7,1111122 
FWRI,ioos:station:FWRI:NPD:2,2013-07-05T00:59:00Z,27.3338,-82.5794,1.8,1111122 
FWRI,ioos:station:FWRI:NPD:2,2013-07-05T01:59:00Z,27.3338,-82.5794,1.7,1111122 
FWRI,ioos:station:FWRI:NPD:2,2013-07-05T02:59:00Z,27.3338,-82.5794,1.6,1111122 
FWRI,ioos:station:FWRI:NPD:2,2013-07-05T03:59:00Z,27.3338,-82.5794,1.5,1111122 
FWRI,ioos:station:FWRI:NPD:2,2013-07-05T04:59:00Z,27.3338,-82.5794,1.3,1111122 
FWRI,ioos:station:FWRI:NPD:2,2013-07-05T05:59:00Z,27.3338,-82.5794,1.4,1111122 
FWRI,ioos:station:FWRI:NPD:2,2013-07-05T06:59:00Z,27.3338,-82.5794,1.4,1111122 
FWRI,ioos:station:FWRI:NPD:2,2013-07-05T07:59:00Z,27.3338,-82.5794,1.3,1111122 
FWRI,ioos:station:FWRI:NPD:2,2013-07-05T08:59:00Z,27.3338,-82.5794,1.3,1111122 
FWRI,ioos:station:FWRI:NPD:2,2013-07-05T09:59:00Z,27.3338,-82.5794,1.4,1111122 
FWRI,ioos:station:FWRI:NPD:2,2013-07-05T10:59:00Z,27.3338,-82.5794,1.3,1111122 
FWRI,ioos:station:FWRI:NPD:2,2013-07-05T11:59:00Z,27.3338,-82.5794,1.9,1111122 
FWRI,ioos:station:FWRI:NPD:2,2013-07-05T12:59:00Z,27.3338,-82.5794,1.4,1111122 
FWRI,ioos:station:FWRI:NPD:2,2013-07-05T13:59:00Z,27.3338,-82.5794,1.2,1111122 
FWRI,ioos:station:FWRI:NPD:2,2013-07-05T14:59:00Z,27.3338,-82.5794,1.1,1111122 
FWRI,ioos:station:FWRI:NPD:2,2013-07-05T15:59:00Z,27.3338,-82.5794,1.0,1111122 
FWRI,ioos:station:FWRI:NPD:2,2013-07-05T16:59:00Z,27.3338,-82.5794,1.0,1111122 
FWRI,ioos:station:FWRI:NPD:2,2013-07-05T17:59:00Z,27.3338,-82.5794,1.1,1111122 
FWRI,ioos:station:FWRI:NPD:2,2013-07-05T18:59:00Z,27.3338,-82.5794,1.6,1111122 
FWRI,ioos:station:FWRI:NPD:2,2013-07-05T19:59:00Z,27.3338,-82.5794,1.9,1111122 
FWRI,ioos:station:FWRI:NPD:2,2013-07-05T20:59:00Z,27.3338,-82.5794,1.8,1111122 
FWRI,ioos:station:FWRI:NPD:2,2013-07-05T21:59:00Z,27.3338,-82.5794,2.4,1111122 
FWRI,ioos:station:FWRI:NPD:2,2013-07-05T22:59:00Z,27.3338,-82.5794,1.9,1111122 
FWRI,ioos:station:FWRI:NPD:2,2013-07-05T23:59:00Z,27.3338,-82.5794,1.8,1111122 
FWRI,ioos:station:FWRI:NPD:2,2013-07-06T00:59:00Z,27.3338,-82.5794,1.6,1111122 
FWRI,ioos:station:FWRI:NPD:2,2013-07-06T01:59:00Z,27.3338,-82.5794,2.3,1111122 
FWRI,ioos:station:FWRI:NPD:2,2013-07-06T02:59:00Z,27.3338,-82.5794,2.0,1111122 
FWRI,ioos:station:FWRI:NPD:2,2013-07-06T03:59:00Z,27.3338,-82.5794,1.7,1111122 
FWRI,ioos:station:FWRI:NPD:2,2013-07-06T04:59:00Z,27.3338,-82.5794,1.6,1111122 
FWRI,ioos:station:FWRI:NPD:2,2013-07-06T05:59:00Z,27.3338,-82.5794,1.5,1111122 
FWRI,ioos:station:FWRI:NPD:2,2013-07-06T06:59:00Z,27.3338,-82.5794,1.6,1111122 
FWRI,ioos:station:FWRI:NPD:2,2013-07-06T07:59:00Z,27.3338,-82.5794,1.7,1111122 
FWRI,ioos:station:FWRI:NPD:2,2013-07-06T08:59:00Z,27.3338,-82.5794,1.4,1111122 
FWRI,ioos:station:FWRI:NPD:2,2013-07-06T09:59:00Z,27.3338,-82.5794,1.5,1111122 
FWRI,ioos:station:FWRI:NPD:2,2013-07-06T10:59:00Z,27.3338,-82.5794,1.5,1111122 
FWRI,ioos:station:FWRI:NPD:2,2013-07-06T11:59:00Z,27.3338,-82.5794,1.8,1111122 
FWRI,ioos:station:FWRI:NPD:2,2013-07-06T12:59:00Z,27.3338,-82.5794,1.6,1111122 
FWRI,ioos:station:FWRI:NPD:2,2013-07-06T13:59:00Z,27.3338,-82.5794,1.5,1111122 
FWRI,ioos:station:FWRI:NPD:2,2013-07-06T14:59:00Z,27.3338,-82.5794,1.4,1111122 
FWRI,ioos:station:FWRI:NPD:2,2013-07-06T15:59:00Z,27.3338,-82.5794,1.3,1111122 
FWRI,ioos:station:FWRI:NPD:2,2013-07-06T16:59:00Z,27.3338,-82.5794,1.3,1111122 
FWRI,ioos:station:FWRI:NPD:2,2013-07-06T17:59:00Z,27.3338,-82.5794,1.4,1111122 
FWRI,ioos:station:FWRI:NPD:2,2013-07-06T18:59:00Z,27.3338,-82.5794,1.4,1111122 
FWRI,ioos:station:FWRI:NPD:2,2013-07-06T19:59:00Z,27.3338,-82.5794,1.8,1111122 
FWRI,ioos:station:FWRI:NPD:2,2013-07-06T20:59:00Z,27.3338,-82.5794,2.1,1111122 
FWRI,ioos:station:FWRI:NPD:2,2013-07-06T21:59:00Z,27.3338,-82.5794,1.7,1111122 
FWRI,ioos:station:FWRI:NPD:2,2013-07-06T22:59:00Z,27.3338,-82.5794,2.0,1111122 
FWRI,ioos:station:FWRI:NPD:2,2013-07-06T23:59:00Z,27.3338,-82.5794,1.7,1111122 
FWRI,ioos:station:FWRI:NPD:2,2013-07-07T00:59:00Z,27.3338,-82.5794,1.5,1111122 
FWRI,ioos:station:FWRI:NPD:2,2013-07-07T01:59:00Z,27.3338,-82.5794,1.5,1111122 
FWRI,ioos:station:FWRI:NPD:2,2013-07-07T02:59:00Z,27.3338,-82.5794,1.5,1111122 
FWRI,ioos:station:FWRI:NPD:2,2013-07-07T03:59:00Z,27.3338,-82.5794,1.5,1111122 
FWRI,ioos:station:FWRI:NPD:2,2013-07-07T04:59:00Z,27.3338,-82.5794,1.6,1111122 
FWRI,ioos:station:FWRI:NPD:2,2013-07-07T05:59:00Z,27.3338,-82.5794,1.3,1111122 
FWRI,ioos:station:FWRI:NPD:2,2013-07-07T06:59:00Z,27.3338,-82.5794,1.2,1111122 
FWRI,ioos:station:FWRI:NPD:2,2013-07-07T07:59:00Z,27.3338,-82.5794,1.3,1111122 
FWRI,ioos:station:FWRI:NPD:2,2013-07-07T08:59:00Z,27.3338,-82.5794,1.3,1111122 
FWRI,ioos:station:FWRI:NPD:2,2013-07-07T09:59:00Z,27.3338,-82.5794,1.2,1111122 
FWRI,ioos:station:FWRI:NPD:2,2013-07-07T10:59:00Z,27.3338,-82.5794,1.4,1111122 
FWRI,ioos:station:FWRI:NPD:2,2013-07-07T11:59:00Z,27.3338,-82.5794,1.4,1111122 
FWRI,ioos:station:FWRI:NPD:2,2013-07-07T12:59:00Z,27.3338,-82.5794,1.4,1111122 
FWRI,ioos:station:FWRI:NPD:2,2013-07-07T13:59:00Z,27.3338,-82.5794,1.4,1111122 
FWRI,ioos:station:FWRI:NPD:2,2013-07-07T14:59:00Z,27.3338,-82.5794,1.3,1111122 
FWRI,ioos:station:FWRI:NPD:2,2013-07-07T15:59:00Z,27.3338,-82.5794,1.2,1111122 
FWRI,ioos:station:FWRI:NPD:2,2013-07-07T16:59:00Z,27.3338,-82.5794,1.2,1111122 
FWRI,ioos:station:FWRI:NPD:2,2013-07-07T17:59:00Z,27.3338,-82.5794,1.3,1111122 
FWRI,ioos:station:FWRI:NPD:2,2013-07-07T18:59:00Z,27.3338,-82.5794,1.3,1111122 
FWRI,ioos:station:FWRI:NPD:2,2013-07-07T19:59:00Z,27.3338,-82.5794,1.4,1111122 
FWRI,ioos:station:FWRI:NPD:2,2013-07-07T20:59:00Z,27.3338,-82.5794,1.6,1111122 
FWRI,ioos:station:FWRI:NPD:2,2013-07-07T21:59:00Z,27.3338,-82.5794,1.7,1111122 
FWRI,ioos:station:FWRI:NPD:2,2013-07-07T22:59:00Z,27.3338,-82.5794,1.7,1111122 
FWRI,ioos:station:FWRI:NPD:2,2013-07-07T23:59:00Z,27.3338,-82.5794,1.6,1111122 
FWRI,ioos:station:FWRI:NPD:2,2013-07-08T00:59:00Z,27.3338,-82.5794,1.7,1111122 
FWRI,ioos:station:FWRI:NPD:2,2013-07-08T01:59:00Z,27.3338,-82.5794,1.7,1111122 
FWRI,ioos:station:FWRI:NPD:2,2013-07-08T02:59:00Z,27.3338,-82.5794,1.6,1111122 
FWRI,ioos:station:FWRI:NPD:2,2013-07-08T03:59:00Z,27.3338,-82.5794,1.5,1111122 
FWRI,ioos:station:FWRI:NPD:2,2013-07-08T04:59:00Z,27.3338,-82.5794,1.4,1111122 
FWRI,ioos:station:FWRI:NPD:2,2013-07-08T05:59:00Z,27.3338,-82.5794,1.2,1111122 
FWRI,ioos:station:FWRI:NPD:2,2013-07-08T06:59:00Z,27.3338,-82.5794,1.3,1111122 
FWRI,ioos:station:FWRI:NPD:2,2013-07-08T07:59:00Z,27.3338,-82.5794,1.3,1111122 
FWRI,ioos:station:FWRI:NPD:2,2013-07-08T08:59:00Z,27.3338,-82.5794,1.3,1111122 
FWRI,ioos:station:FWRI:NPD:2,2013-07-08T09:59:00Z,27.3338,-82.5794,1.3,1111122 
FWRI,ioos:station:FWRI:NPD:2,2013-07-08T10:59:00Z,27.3338,-82.5794,1.2,1111122 
FWRI,ioos:station:FWRI:NPD:2,2013-07-08T11:59:00Z,27.3338,-82.5794,1.3,1111122 
FWRI,ioos:station:FWRI:NPD:2,2013-07-08T12:59:00Z,27.3338,-82.5794,1.5,1111122 
FWRI,ioos:station:FWRI:NPD:2,2013-07-08T13:59:00Z,27.3338,-82.5794,1.2,1111122 
FWRI,ioos:station:FWRI:NPD:2,2013-07-08T14:59:00Z,27.3338,-82.5794,1.3,1111122 
FWRI,ioos:station:FWRI:NPD:2,2013-07-08T15:59:00Z,27.3338,-82.5794,1.4,1111122 
FWRI,ioos:station:FWRI:NPD:2,2013-07-08T16:59:00Z,27.3338,-82.5794,1.3,1111122 
FWRI,ioos:station:FWRI:NPD:2,2013-07-08T17:59:00Z,27.3338,-82.5794,1.1,1111122 
FWRI,ioos:station:FWRI:NPD:2,2013-07-08T18:59:00Z,27.3338,-82.5794,1.2,1111122 
FWRI,ioos:station:FWRI:NPD:2,2013-07-08T19:59:00Z,27.3338,-82.5794,1.3,1111122 
FWRI,ioos:station:FWRI:NPD:2,2013-07-08T20:59:00Z,27.3338,-82.5794,1.3,1111122 
FWRI,ioos:station:FWRI:NPD:2,2013-07-08T21:59:00Z,27.3338,-82.5794,1.5,1111122 
FWRI,ioos:station:FWRI:NPD:2,2013-07-08T22:59:00Z,27.3338,-82.5794,1.6,1111122 
FWRI,ioos:station:FWRI:NPD:2,2013-07-08T23:59:00Z,27.3338,-82.5794,1.6,1111122 
FWRI,ioos:station:FWRI:NPD:2,2013-07-09T00:59:00Z,27.3338,-82.5794,1.7,1111122 
FWRI,ioos:station:FWRI:NPD:2,2013-07-09T01:59:00Z,27.3338,-82.5794,1.6,1111122 
FWRI,ioos:station:FWRI:NPD:2,2013-07-09T02:59:00Z,27.3338,-82.5794,1.5,1111122 
FWRI,ioos:station:FWRI:NPD:2,2013-07-09T03:59:00Z,27.3338,-82.5794,1.5,1111122 
FWRI,ioos:station:FWRI:NPD:2,2013-07-09T04:59:00Z,27.3338,-82.5794,1.4,1111122 
FWRI,ioos:station:FWRI:NPD:2,2013-07-09T05:59:00Z,27.3338,-82.5794,1.2,1111122 
FWRI,ioos:station:FWRI:NPD:2,2013-07-09T06:59:00Z,27.3338,-82.5794,1.3,1111122 
FWRI,ioos:station:FWRI:NPD:2,2013-07-09T07:59:00Z,27.3338,-82.5794,1.3,1111122 
FWRI,ioos:station:FWRI:NPD:2,2013-07-09T08:59:00Z,27.3338,-82.5794,1.3,1111122 
FWRI,ioos:station:FWRI:NPD:2,2013-07-09T09:59:00Z,27.3338,-82.5794,1.3,1111122 
FWRI,ioos:station:FWRI:NPD:2,2013-07-09T10:59:00Z,27.3338,-82.5794,1.3,1111122 
FWRI,ioos:station:FWRI:NPD:2,2013-07-09T11:59:00Z,27.3338,-82.5794,1.3,1111122 
FWRI,ioos:station:FWRI:NPD:2,2013-07-09T12:59:00Z,27.3338,-82.5794,1.3,1111122 
FWRI,ioos:station:FWRI:NPD:2,2013-07-09T13:59:00Z,27.3338,-82.5794,1.3,1111122 
FWRI,ioos:station:FWRI:NPD:2,2013-07-09T14:59:00Z,27.3338,-82.5794,1.3,1111122 
FWRI,ioos:station:FWRI:NPD:2,2013-07-09T15:59:00Z,27.3338,-82.5794,1.3,1111122 
FWRI,ioos:station:FWRI:NPD:2,2013-07-09T16:59:00Z,27.3338,-82.5794,1.3,1111122 
FWRI,ioos:station:FWRI:NPD:2,2013-07-09T17:59:00Z,27.3338,-82.5794,1.2,1111122 
FWRI,ioos:station:FWRI:NPD:2,2013-07-09T18:59:00Z,27.3338,-82.5794,1.2,1111122 
FWRI,ioos:station:FWRI:NPD:2,2013-07-09T19:59:00Z,27.3338,-82.5794,1.2,1111122 
FWRI,ioos:station:FWRI:NPD:2,2013-07-09T20:59:00Z,27.3338,-82.5794,1.2,1111122 
FWRI,ioos:station:FWRI:NPD:2,2013-07-09T21:59:00Z,27.3338,-82.5794,1.2,1111122 
FWRI,ioos:station:FWRI:NPD:2,2013-07-09T22:59:00Z,27.3338,-82.5794,1.2,1111122 
FWRI,ioos:station:FWRI:NPD:2,2013-07-09T23:59:00Z,27.3338,-82.5794,1.5,1111122 
FWRI,ioos:station:FWRI:NPD:2,2013-07-10T00:59:00Z,27.3338,-82.5794,1.5,1111122 
FWRI,ioos:station:FWRI:NPD:2,2013-07-10T01:59:00Z,27.3338,-82.5794,1.6,1111122 
FWRI,ioos:station:FWRI:NPD:2,2013-07-10T02:59:00Z,27.3338,-82.5794,1.5,1111122 
FWRI,ioos:station:FWRI:NPD:2,2013-07-10T03:59:00Z,27.3338,-82.5794,1.7,1111122 
FWRI,ioos:station:FWRI:NPD:2,2013-07-10T04:59:00Z,27.3338,-82.5794,1.5,1111122 
FWRI,ioos:station:FWRI:NPD:2,2013-07-10T05:59:00Z,27.3338,-82.5794,1.5,1111122 
FWRI,ioos:station:FWRI:NPD:2,2013-07-10T06:59:00Z,27.3338,-82.5794,1.6,1111122 
FWRI,ioos:station:FWRI:NPD:2,2013-07-10T07:59:00Z,27.3338,-82.5794,1.5,1111122 
FWRI,ioos:station:FWRI:NPD:2,2013-07-10T08:59:00Z,27.3338,-82.5794,1.4,1111122 
FWRI,ioos:station:FWRI:NPD:2,2013-07-10T09:59:00Z,27.3338,-82.5794,1.4,1111122 
FWRI,ioos:station:FWRI:NPD:2,2013-07-10T10:59:00Z,27.3338,-82.5794,1.4,1111122 
FWRI,ioos:station:FWRI:NPD:2,2013-07-10T11:59:00Z,27.3338,-82.5794,1.5,1111122 
FWRI,ioos:station:FWRI:NPD:2,2013-07-10T12:59:00Z,27.3338,-82.5794,1.4,1111122 
FWRI,ioos:station:FWRI:NPD:2,2013-07-10T13:59:00Z,27.3338,-82.5794,1.5,1111122 
FWRI,ioos:station:FWRI:NPD:2,2013-07-10T14:59:00Z,27.3338,-82.5794,1.4,1111122 
FWRI,ioos:station:FWRI:NPD:2,2013-07-10T15:59:00Z,27.3338,-82.5794,1.4,1111122 
FWRI,ioos:station:FWRI:NPD:2,2013-07-10T16:59:00Z,27.3338,-82.5794,1.4,1111122 
FWRI,ioos:station:FWRI:NPD:2,2013-07-10T17:59:00Z,27.3338,-82.5794,1.2,1111122 
FWRI,ioos:station:FWRI:NPD:2,2013-07-10T18:59:00Z,27.3338,-82.5794,1.3,1111122 
FWRI,ioos:station:FWRI:NPD:2,2013-07-10T19:59:00Z,27.3338,-82.5794,1.3,1111122 
FWRI,ioos:station:FWRI:NPD:2,2013-07-10T20:59:00Z,27.3338,-82.5794,1.4,1111122 
FWRI,ioos:station:FWRI:NPD:2,2013-07-10T21:59:00Z,27.3338,-82.5794,1.7,1111122 
FWRI,ioos:station:FWRI:NPD:2,2013-07-10T22:59:00Z,27.3338,-82.5794,1.6,1111122 
FWRI,ioos:station:FWRI:NPD:2,2013-07-10T23:59:00Z,27.3338,-82.5794,1.6,1111122 
FWRI,ioos:station:FWRI:NPD:2,2013-07-11T00:59:00Z,27.3338,-82.5794,1.6,1111122 
FWRI,ioos:station:FWRI:NPD:2,2013-07-11T01:59:00Z,27.3338,-82.5794,1.7,1111122 
FWRI,ioos:station:FWRI:NPD:2,2013-07-11T02:59:00Z,27.3338,-82.5794,1.5,1111122 
FWRI,ioos:station:FWRI:NPD:2,2013-07-11T03:59:00Z,27.3338,-82.5794,1.6,1111122 
FWRI,ioos:station:FWRI:NPD:2,2013-07-11T04:59:00Z,27.3338,-82.5794,1.5,1111122 
FWRI,ioos:station:FWRI:NPD:2,2013-07-11T05:59:00Z,27.3338,-82.5794,1.4,1111122 
FWRI,ioos:station:FWRI:NPD:2,2013-07-11T06:59:00Z,27.3338,-82.5794,1.4,1111122 
FWRI,ioos:station:FWRI:NPD:2,2013-07-11T07:59:00Z,27.3338,-82.5794,1.4,1111122 
FWRI,ioos:station:FWRI:NPD:2,2013-07-11T08:59:00Z,27.3338,-82.5794,1.3,1111122 
FWRI,ioos:station:FWRI:NPD:2,2013-07-11T09:59:00Z,27.3338,-82.5794,1.4,1111122 
FWRI,ioos:station:FWRI:NPD:2,2013-07-11T10:59:00Z,27.3338,-82.5794,1.3,1111122 
FWRI,ioos:station:FWRI:NPD:2,2013-07-11T11:59:00Z,27.3338,-82.5794,1.4,1111122 
FWRI,ioos:station:FWRI:NPD:2,2013-07-11T12:59:00Z,27.3338,-82.5794,1.4,1111122 
FWRI,ioos:station:FWRI:NPD:2,2013-07-11T13:59:00Z,27.3338,-82.5794,1.4,1111122 
FWRI,ioos:station:FWRI:NPD:2,2013-07-11T14:59:00Z,27.3338,-82.5794,1.4,1111122 
FWRI,ioos:station:FWRI:NPD:2,2013-07-11T15:59:00Z,27.3338,-82.5794,1.5,1111122 
FWRI,ioos:station:FWRI:NPD:2,2013-07-11T16:59:00Z,27.3338,-82.5794,1.4,1111122 
FWRI,ioos:station:FWRI:NPD:2,2013-07-11T17:59:00Z,27.3338,-82.5794,1.4,1111122 
FWRI,ioos:station:FWRI:NPD:2,2013-07-11T18:59:00Z,27.3338,-82.5794,1.3,1111122 
FWRI,ioos:station:FWRI:NPD:2,2013-07-11T19:59:00Z,27.3338,-82.5794,1.3,1111122 
FWRI,ioos:station:FWRI:NPD:2,2013-07-11T20:59:00Z,27.3338,-82.5794,1.4,1111122 
FWRI,ioos:station:FWRI:NPD:2,2013-07-11T21:59:00Z,27.3338,-82.5794,1.5,1111122 
FWRI,ioos:station:FWRI:NPD:2,2013-07-11T22:59:00Z,27.3338,-82.5794,1.6,1111122 
FWRI,ioos:station:FWRI:NPD:2,2013-07-11T23:59:00Z,27.3338,-82.5794,1.7,1111122 
FWRI,ioos:station:FWRI:NPD:2,2013-07-12T00:59:00Z,27.3338,-82.5794,1.7,1111122 
FWRI,ioos:station:FWRI:NPD:2,2013-07-12T01:59:00Z,27.3338,-82.5794,1.7,1111122 
FWRI,ioos:station:FWRI:NPD:2,2013-07-12T02:59:00Z,27.3338,-82.5794,1.7,1111122 
FWRI,ioos:station:FWRI:NPD:2,2013-07-12T03:59:00Z,27.3338,-82.5794,1.7,1111122 
FWRI,ioos:station:FWRI:NPD:2,2013-07-12T04:59:00Z,27.3338,-82.5794,1.7,1111122 
FWRI,ioos:station:FWRI:NPD:2,2013-07-12T05:59:00Z,27.3338,-82.5794,1.5,1111122 
FWRI,ioos:station:FWRI:NPD:2,2013-07-12T06:59:00Z,27.3338,-82.5794,1.4,1111122 
FWRI,ioos:station:FWRI:NPD:2,2013-07-12T07:59:00Z,27.3338,-82.5794,1.4,1111122 
FWRI,ioos:station:FWRI:NPD:2,2013-07-12T08:59:00Z,27.3338,-82.5794,1.4,1111122 
FWRI,ioos:station:FWRI:NPD:2,2013-07-12T09:59:00Z,27.3338,-82.5794,1.5,1111122 
FWRI,ioos:station:FWRI:NPD:2,2013-07-12T10:59:00Z,27.3338,-82.5794,1.4,1111122 
FWRI,ioos:station:FWRI:NPD:2,2013-07-12T11:59:00Z,27.3338,-82.5794,1.5,1111122 
FWRI,ioos:station:FWRI:NPD:2,2013-07-12T12:59:00Z,27.3338,-82.5794,1.5,1111122 
FWRI,ioos:station:FWRI:NPD:2,2013-07-12T13:59:00Z,27.3338,-82.5794,1.5,1111122 
FWRI,ioos:station:FWRI:NPD:2,2013-07-12T14:59:00Z,27.3338,-82.5794,1.5,1111122 
FWRI,ioos:station:FWRI:NPD:2,2013-07-12T15:59:00Z,27.3338,-82.5794,1.5,1111122 
FWRI,ioos:station:FWRI:NPD:2,2013-07-12T16:59:00Z,27.3338,-82.5794,1.4,1111122 
FWRI,ioos:station:FWRI:NPD:2,2013-07-12T17:59:00Z,27.3338,-82.5794,1.4,1111122 
FWRI,ioos:station:FWRI:NPD:2,2013-07-12T18:59:00Z,27.3338,-82.5794,1.6,1111122 
FWRI,ioos:station:FWRI:NPD:2,2013-07-12T19:59:00Z,27.3338,-82.5794,1.2,1111122 
FWRI,ioos:station:FWRI:NPD:2,2013-07-12T20:59:00Z,27.3338,-82.5794,1.3,1111122 
FWRI,ioos:station:FWRI:NPD:2,2013-07-12T21:59:00Z,27.3338,-82.5794,1.4,1111122 
FWRI,ioos:station:FWRI:NPD:2,2013-07-12T22:59:00Z,27.3338,-82.5794,1.4,1111122 
FWRI,ioos:station:FWRI:NPD:2,2013-07-12T23:59:00Z,27.3338,-82.5794,1.5,1111122 
FWRI,ioos:station:FWRI:NPD:2,2013-07-13T00:59:00Z,27.3338,-82.5794,1.6,1111122 
FWRI,ioos:station:FWRI:NPD:2,2013-07-13T01:59:00Z,27.3338,-82.5794,1.5,1111122 
FWRI,ioos:station:FWRI:NPD:2,2013-07-13T02:59:00Z,27.3338,-82.5794,1.5,1111122 
FWRI,ioos:station:FWRI:NPD:2,2013-07-13T03:59:00Z,27.3338,-82.5794,1.5,1111122 
FWRI,ioos:station:FWRI:NPD:2,2013-07-13T04:59:00Z,27.3338,-82.5794,1.5,1111122 
FWRI,ioos:station:FWRI:NPD:2,2013-07-13T05:59:00Z,27.3338,-82.5794,1.7,1111122 
FWRI,ioos:station:FWRI:NPD:2,2013-07-13T06:59:00Z,27.3338,-82.5794,1.5,1111122 
FWRI,ioos:station:FWRI:NPD:2,2013-07-13T07:59:00Z,27.3338,-82.5794,1.4,1111122 
FWRI,ioos:station:FWRI:NPD:2,2013-07-13T08:59:00Z,27.3338,-82.5794,1.3,1111122 
FWRI,ioos:station:FWRI:NPD:2,2013-07-13T09:59:00Z,27.3338,-82.5794,1.3,1111122 
FWRI,ioos:station:FWRI:NPD:2,2013-07-13T10:59:00Z,27.3338,-82.5794,1.3,1111122 
FWRI,ioos:station:FWRI:NPD:2,2013-07-13T11:59:00Z,27.3338,-82.5794,1.4,1111122 
FWRI,ioos:station:FWRI:NPD:2,2013-07-13T12:59:00Z,27.3338,-82.5794,1.7,1111122 
FWRI,ioos:station:FWRI:NPD:2,2013-07-13T13:59:00Z,27.3338,-82.5794,1.4,1111122 
FWRI,ioos:station:FWRI:NPD:2,2013-07-13T14:59:00Z,27.3338,-82.5794,1.5,1111122 
FWRI,ioos:station:FWRI:NPD:2,2013-07-13T15:59:00Z,27.3338,-82.5794,1.5,1111122 
FWRI,ioos:station:FWRI:NPD:2,2013-07-13T16:59:00Z,27.3338,-82.5794,1.6,1111122 
FWRI,ioos:station:FWRI:NPD:2,2013-07-13T17:59:00Z,27.3338,-82.5794,1.4,1111122 
FWRI,ioos:station:FWRI:NPD:2,2013-07-13T18:59:00Z,27.3338,-82.5794,1.4,1111122 
FWRI,ioos:station:FWRI:NPD:2,2013-07-13T19:59:00Z,27.3338,-82.5794,1.3,1111122 
FWRI,ioos:station:FWRI:NPD:2,2013-07-13T20:59:00Z,27.3338,-82.5794,1.4,1111122 
FWRI,ioos:station:FWRI:NPD:2,2013-07-13T21:59:00Z,27.3338,-82.5794,1.3,1111122 
FWRI,ioos:station:FWRI:NPD:2,2013-07-13T22:59:00Z,27.3338,-82.5794,1.5,1111122 
FWRI,ioos:station:FWRI:NPD:2,2013-07-13T23:59:00Z,27.3338,-82.5794,1.4,1111122 
FWRI,ioos:station:FWRI:NPD:2,2013-07-14T00:59:00Z,27.3338,-82.5794,1.5,1111122 
FWRI,ioos:station:FWRI:NPD:2,2013-07-14T01:59:00Z,27.3338,-82.5794,1.6,1111122 
FWRI,ioos:station:FWRI:NPD:2,2013-07-14T02:59:00Z,27.3338,-82.5794,1.6,1111122 
FWRI,ioos:station:FWRI:NPD:2,2013-07-14T03:59:00Z,27.3338,-82.5794,1.8,1111122 
FWRI,ioos:station:FWRI:NPD:2,2013-07-14T04:59:00Z,27.3338,-82.5794,1.6,1111122 
FWRI,ioos:station:FWRI:NPD:2,2013-07-14T05:59:00Z,27.3338,-82.5794,1.6,1111122 
FWRI,ioos:station:FWRI:NPD:2,2013-07-14T06:59:00Z,27.3338,-82.5794,1.2,1111122 
FWRI,ioos:station:FWRI:NPD:2,2013-07-14T07:59:00Z,27.3338,-82.5794,1.5,1111122 
FWRI,ioos:station:FWRI:NPD:2,2013-07-14T08:59:00Z,27.3338,-82.5794,1.5,1111122 
FWRI,ioos:station:FWRI:NPD:2,2013-07-14T09:59:00Z,27.3338,-82.5794,1.4,1111122 
FWRI,ioos:station:FWRI:NPD:2,2013-07-14T10:59:00Z,27.3338,-82.5794,1.2,1111122 
FWRI,ioos:station:FWRI:NPD:2,2013-07-14T11:59:00Z,27.3338,-82.5794,1.4,1111122 
FWRI,ioos:station:FWRI:NPD:2,2013-07-14T12:59:00Z,27.3338,-82.5794,1.5,1111122 
FWRI,ioos:station:FWRI:NPD:2,2013-07-14T13:59:00Z,27.3338,-82.5794,1.6,1111122 
FWRI,ioos:station:FWRI:NPD:2,2013-07-14T14:59:00Z,27.3338,-82.5794,1.2,1111122 
FWRI,ioos:station:FWRI:NPD:2,2013-07-14T15:59:00Z,27.3338,-82.5794,1.5,1111122 
FWRI,ioos:station:FWRI:NPD:2,2013-07-14T16:59:00Z,27.3338,-82.5794,1.4,1111122 
FWRI,ioos:station:FWRI:NPD:2,2013-07-14T17:59:00Z,27.3338,-82.5794,1.5,1111122 
FWRI,ioos:station:FWRI:NPD:2,2013-07-14T18:59:00Z,27.3338,-82.5794,1.7,1111122 
FWRI,ioos:station:FWRI:NPD:2,2013-07-14T19:59:00Z,27.3338,-82.5794,1.6,1111122 
FWRI,ioos:station:FWRI:NPD:2,2013-07-14T20:59:00Z,27.3338,-82.5794,1.6,1111122 
FWRI,ioos:station:FWRI:NPD:2,2013-07-14T21:59:00Z,27.3338,-82.5794,1.5,1111122 
FWRI,ioos:station:FWRI:NPD:2,2013-07-14T22:59:00Z,27.3338,-82.5794,1.5,1111122 
FWRI,ioos:station:FWRI:NPD:2,2013-07-14T23:59:00Z,27.3338,-82.5794,1.6,1111122 
FWRI,ioos:station:FWRI:NPD:2,2013-07-15T00:59:00Z,27.3338,-82.5794,1.5,1111122 
FWRI,ioos:station:FWRI:NPD:2,2013-07-15T01:59:00Z,27.3338,-82.5794,1.6,1111122 
FWRI,ioos:station:FWRI:NPD:2,2013-07-15T02:59:00Z,27.3338,-82.5794,1.5,1111122 
FWRI,ioos:station:FWRI:NPD:2,2013-07-15T03:59:00Z,27.3338,-82.5794,1.5,1111122 
FWRI,ioos:station:FWRI:NPD:2,2013-07-15T04:59:00Z,27.3338,-82.5794,1.5,1111122 
FWRI,ioos:station:FWRI:NPD:2,2013-07-15T05:59:00Z,27.3338,-82.5794,1.5,1111122 
FWRI,ioos:station:FWRI:NPD:2,2013-07-15T06:59:00Z,27.3338,-82.5794,1.5,1111122 
FWRI,ioos:station:FWRI:NPD:2,2013-07-15T07:59:00Z,27.3338,-82.5794,1.5,1111122 
FWRI,ioos:station:FWRI:NPD:2,2013-07-15T08:59:00Z,27.3338,-82.5794,1.5,1111122 
FWRI,ioos:station:FWRI:NPD:2,2013-07-15T09:59:00Z,27.3338,-82.5794,1.5,1111122 